CW4438 Weather Reports


Display with metric or nautical units.
time (UTC)temp
F
wind
direction
speed
MPH
gust
MPH
rain 1hr
in
rain 24hr
in
rain mn
in
humidity
%
barometer
mb
20260506044117 46 13 1.0 4.0 0.00 1.48 1.48 93 1012.2
20260506043614 46 47 1.0 4.0 0.00 1.48 1.48 93 1012.1
20260506043109 46 85 1.0 7.0 0.00 1.48 1.48 93 1012.0
20260506042605 47 5 1.0 7.0 0.00 1.48 1.48 93 1012.0
20260506042106 47 295 2.0 7.0 0.00 1.48 1.48 93 1012.1
20260506041605 46 117 2.0 8.0 0.00 1.48 1.48 93 1012.1
20260506041105 46 5 2.0 8.0 0.00 1.48 1.48 93 1012.0
20260506040605 47 312 1.0 6.0 0.00 1.48 1.48 94 1011.9
20260506040104 47 72 1.0 8.0 0.00 1.48 1.48 94 1011.8
20260506035603 47 5 2.0 8.0 0.00 1.48 1.48 94 1011.7
20260506035106 47 17 2.0 7.0 0.00 1.48 1.48 94 1011.7
20260506034602 47 28 1.0 7.0 0.00 1.48 1.48 94 1011.6
20260506034102 47 269 1.0 7.0 0.00 1.48 1.48 94 1011.5
20260506033606 47 51 2.0 7.0 0.00 1.48 1.48 94 1011.5
20260506033101 47 17 1.0 7.0 0.00 1.48 1.48 94 1011.4
20260506032601 47 351 1.0 2.0 0.00 1.48 1.48 94 1011.3
20260506032059 47 330 1.0 3.0 0.00 1.48 1.48 94 1010.9
20260506031559 47 5 1.0 3.0 0.00 1.48 1.48 94 1010.9
20260506031059 47 20 1.0 3.0 0.00 1.48 1.48 94 1010.7
20260506030559 47 19 1.0 3.0 0.00 1.48 1.48 94 1010.9
20260506025557 47 105 1.0 4.0 0.00 1.48 1.48 94 1010.5
20260506025100 47 351 1.0 4.0 0.00 1.48 1.48 94 1010.5
20260506024557 47 45 1.0 5.0 0.00 1.48 1.48 94 1010.4
20260506023554 47 334 1.0 4.0 0.00 1.48 1.48 94 1010.0
20260506023055 47 345 1.0 4.0 0.00 1.48 1.48 94 1009.9
20260506022555 47 350 1.0 4.0 0.00 1.48 1.48 94 1009.9
20260506021549 47 5 1.0 4.0 0.00 1.48 1.48 94 1009.9
20260506021049 47 152 1.0 6.0 0.00 1.48 1.48 94 1009.8
20260506020552 47 351 1.0 6.0 0.00 1.48 1.48 94 1009.9
20260506020047 47 312 1.0 3.0 0.00 1.48 1.48 94 1009.9
20260506015546 47 12 1.0 3.0 0.00 1.48 1.48 93 1009.8
20260506014547 47 30 1.0 3.0 0.00 1.48 1.48 93 1010.1
20260506014047 47 128 1.0 3.0 0.00 1.48 1.48 93 1010.4
20260506013549 47 167 1.0 4.0 0.00 1.48 1.48 93 1010.2
20260506013047 47 184 1.0 4.0 0.00 1.48 1.48 93 1009.9
20260506012547 47 5 1.0 5.0 0.00 1.48 1.48 93 1009.6
20260506012048 47 317 2.0 6.0 0.00 1.48 1.48 93 1009.3
20260506011547 47 17 1.0 6.0 0.00 1.48 1.48 93 1009.0
20260506011047 48 344 1.0 3.0 0.00 1.48 1.48 93 1009.4
20260506010550 48 18 1.0 5.0 0.00 1.48 1.48 93 1009.0
20260506010047 48 337 1.0 5.0 0.00 1.48 1.48 93 1009.2
20260506005547 48 41 1.0 4.0 0.00 1.48 1.48 93 1009.3
20260506005048 48 327 2.0 4.0 0.00 1.48 1.48 93 1009.2
20260506004547 48 315 1.0 5.0 0.00 1.48 1.48 93 1009.4
20260506004049 48 153 2.0 5.0 0.00 1.48 1.48 93 1009.0
20260506003549 48 18 2.0 5.0 0.00 1.48 1.48 92 1009.3
20260506003047 49 349 1.0 4.0 0.00 1.48 1.48 93 1009.3
20260506002547 49 341 1.0 4.0 0.00 1.48 1.48 93 1008.8
20260506002043 49 57 1.0 5.0 0.00 1.48 1.48 93 1008.9
20260506001543 49 28 1.0 5.0 0.00 1.48 1.48 92 1008.9
20260506001044 49 315 2.0 5.0 0.00 1.48 1.48 92 1008.8
20260506000543 49 87 1.0 4.0 0.00 1.48 1.48 92 1008.7
20260506000043 49 76 1.0 4.0 0.00 1.48 1.48 92 1008.6
20260505235544 49 28 1.0 6.0 0.00 1.48 1.48 92 1009.0
20260505235048 49 309 1.0 6.0 0.00 1.48 1.48 92 1008.8
20260505234543 49 350 1.0 4.0 0.00 1.48 1.48 92 1008.7
20260505234041 49 167 1.0 5.0 0.00 1.48 1.48 92 1008.2
20260505233538 49 337 2.0 5.0 0.00 1.48 1.48 92 1008.6
20260505233033 49 311 2.0 3.0 0.00 1.48 1.48 92 1008.4
20260505232533 49 336 1.0 4.0 0.00 1.48 1.48 92 1008.2
20260505232033 49 13 1.0 5.0 0.00 1.48 1.48 92 1007.8
20260505231533 49 254 1.0 7.0 0.00 1.48 1.48 92 1008.1
20260505231033 50 19 1.0 7.0 0.00 1.48 1.48 92 1008.1
20260505230533 50 329 1.0 5.0 0.00 1.48 1.48 92 1008.0
20260505230033 50 340 1.0 4.0 0.00 1.48 1.48 92 1007.9
20260505225530 50 355 2.0 4.0 0.00 1.48 1.48 92 1007.7
20260505225029 50 296 2.0 9.0 0.00 1.48 1.48 92 1007.6
20260505224528 50 82 2.0 9.0 0.00 1.48 1.48 92 1007.6
20260505224029 50 318 2.0 6.0 0.00 1.48 1.48 92 1007.8
20260505223029 51 106 2.0 8.0 0.00 1.48 1.48 92 1007.7
20260505222529 51 38 2.0 7.0 0.00 1.48 1.48 92 1007.4
20260505222029 51 135 2.0 7.0 0.00 1.48 1.48 91 1007.2
20260505221029 52 346 2.0 6.0 0.00 1.48 1.48 91 1007.1
20260505220525 52 45 2.0 6.0 0.00 1.48 1.48 92 1007.5
20260505220024 52 0 1.0 6.0 0.00 1.48 1.48 92 1007.2
20260505215525 52 331 1.0 4.0 0.00 1.48 1.48 92 1007.1
20260505215025 52 5 1.0 7.0 0.00 1.48 1.48 92 1007.1
20260505214524 52 53 2.0 7.0 0.00 1.48 1.48 92 1007.3
20260505213525 53 23 2.0 6.0 0.00 1.48 1.48 92 1007.3
20260505212525 53 136 2.0 7.0 0.00 1.48 1.48 92 1007.1
20260505212025 53 171 2.0 7.0 0.00 1.48 1.48 92 1007.1
20260505211524 53 303 2.0 7.0 0.00 1.48 1.48 92 1006.9
20260505211025 53 333 2.0 7.0 0.00 1.48 1.48 92 1006.9
20260505210525 53 350 2.0 6.0 0.00 1.48 1.48 92 1007.0
20260505210025 54 34 2.0 7.0 0.00 1.48 1.48 92 1007.0
20260505204513 54 268 1.0 3.0 0.01 1.48 1.48 93 1007.0
20260505204010 54 99 1.0 3.0 0.01 1.48 1.48 92 1007.1
20260505203511 54 53 1.0 4.0 0.01 1.48 1.48 93 1007.0
20260505203010 54 54 1.0 5.0 0.01 1.48 1.48 92 1007.0
20260505202511 54 56 2.0 10.0 0.01 1.48 1.48 93 1007.0
20260505201512 55 17 2.0 5.0 0.01 1.48 1.48 93 1007.0
20260505200510 55 14 2.0 10.0 0.01 1.48 1.48 93 1006.7
20260505200004 55 305 2.0 6.0 0.01 1.48 1.48 93 1006.7
20260505195503 55 58 2.0 6.0 0.01 1.48 1.48 93 1007.1
20260505194503 55 336 1.0 4.0 0.00 1.47 1.47 93 1007.4
20260505194002 56 189 1.0 4.0 0.00 1.47 1.47 93 1007.4
20260505193501 56 290 2.0 13.0 0.00 1.47 1.47 93 1007.0
20260505193000 56 323 2.0 13.0 0.00 1.47 1.47 93 1006.5
20260505192501 56 332 1.0 5.0 0.00 1.47 1.47 93 1006.1
20260505191501 56 350 2.0 10.0 0.00 1.47 1.47 92 1006.5
20260505191000 56 82 2.0 6.0 0.00 1.47 1.47 93 1006.5
20260505190501 56 34 1.0 4.0 0.00 1.47 1.47 93 1006.4
20260505190002 56 290 1.0 4.0 0.00 1.47 1.47 93 1006.7
20260505185501 56 5 1.0 6.0 0.00 1.47 1.47 93 1006.8
20260505185002 57 25 2.0 6.0 0.00 1.47 1.47 92 1006.9
20260505184503 57 333 2.0 6.0 0.00 1.47 1.47 92 1006.6
20260505184002 57 0 1.0 6.0 0.00 1.47 1.47 92 1006.4
20260505183502 57 78 1.0 5.0 0.00 1.47 1.47 92 1006.4
20260505183003 57 267 2.0 4.0 0.00 1.47 1.47 92 1006.5
20260505182502 58 5 2.0 7.0 0.00 1.47 1.47 92 1006.4
20260505182002 58 61 2.0 7.0 0.00 1.47 1.47 92 1006.4
20260505181503 58 323 2.0 7.0 0.00 1.47 1.47 92 1006.4
20260505181002 59 207 1.0 7.0 0.00 1.47 1.47 92 1006.1
20260505180502 59 331 2.0 6.0 0.00 1.47 1.47 92 1006.1
20260505180002 60 289 2.0 9.0 0.00 1.47 1.47 93 1005.9
20260505175502 60 26 2.0 9.0 0.00 1.47 1.47 93 1006.0
20260505175002 61 284 1.0 7.0 0.00 1.47 1.47 94 1006.0
20260505174001 62 300 1.0 3.0 0.00 1.47 1.47 95 1005.9
20260505173500 62 46 1.0 3.0 0.00 1.47 1.47 95 1005.9
20260505173001 62 336 1.0 5.0 0.00 1.47 1.47 95 1005.9
20260505172007 62 322 1.0 3.0 0.00 1.47 1.47 95 1005.8
20260505171506 63 32 0.0 3.0 0.00 1.47 1.47 95 1005.5
20260505171002 63 296 0.0 3.0 0.00 1.47 1.47 95 1005.5
20260505170502 63 40 0.0 5.0 0.00 1.47 1.47 95 1005.5
20260505170001 63 98 1.0 5.0 0.00 1.47 1.47 95 1005.5
20260505165501 63 49 0.0 2.0 0.00 1.47 1.47 95 1005.5
20260505165001 63 13 0.0 3.0 0.00 1.47 1.47 95 1005.7
20260505164457 63 350 1.0 3.0 0.00 1.47 1.47 95 1005.8
20260505163951 63 346 0.0 3.0 0.00 1.47 1.47 95 1005.8
20260505163432 63 0 0.0 3.0 0.00 1.47 1.47 95 1005.8
20260505162431 63 33 0.0 1.0 0.00 1.47 1.47 96 1005.7
20260505161930 63 0 0.0 1.0 0.00 1.47 1.47 96 1005.7
20260505161430 63 26 0.0 1.0 0.00 1.47 1.47 96 1005.5
20260505160931 63 0 0.0 3.0 0.00 1.47 1.47 96 1005.5
20260505152930 62 57 1.0 3.0 0.00 1.47 1.47 96 1005.1
20260505151930 62 130 1.0 6.0 0.00 1.47 1.47 96 1005.1
20260505151428 62 77 1.0 6.0 0.00 1.47 1.47 96 1005.1
20260505150928 62 88 2.0 5.0 0.00 1.47 1.47 96 1005.1
20260505150429 62 70 2.0 5.0 0.00 1.47 1.47 96 1005.1
20260505140429 61 48 0.0 1.0 0.00 1.47 1.47 96 1005.7
20260505124928 60 55 0.0 3.0 0.00 1.47 1.47 96 1005.3
20260505124429 60 55 1.0 5.0 0.00 1.47 1.47 96 1005.3
20260505123929 60 38 1.0 5.0 0.00 1.47 1.47 96 1005.2
20260505123429 60 108 1.0 5.0 0.00 1.47 1.47 96 1005.0
20260505122929 60 76 1.0 4.0 0.00 1.47 1.47 96 1005.0
20260505121930 60 70 1.0 3.0 0.00 1.47 1.47 96 1004.8
20260505121430 60 179 1.0 3.0 0.00 1.47 1.47 96 1004.9
20260505120931 60 136 0.0 3.0 0.00 1.47 1.47 96 1004.9
20260505120428 60 142 1.0 3.0 0.00 1.47 1.47 96 1004.8
20260505115418 60 156 1.0 3.0 0.00 1.47 1.47 96 1004.7
20260505114411 60 184 1.0 3.0 0.00 1.47 1.47 96 1004.7
20260505113908 60 96 1.0 5.0 0.00 1.47 1.47 95 1004.6
20260505113407 60 138 2.0 6.0 0.00 1.47 1.47 96 1004.6
20260505112905 60 117 1.0 6.0 0.00 1.47 1.47 95 1004.6
20260505112403 60 65 1.0 5.0 0.00 1.47 1.47 95 1004.6
20260505111903 60 146 1.0 5.0 0.00 1.47 1.47 95 1004.5
20260505111402 60 217 1.0 4.0 0.01 1.47 1.47 95 1004.5
20260505110901 60 171 1.0 3.0 0.01 1.47 1.47 95 1004.3
20260505110401 60 209 2.0 5.0 0.01 1.47 1.47 95 1004.5
20260505101901 59 118 1.0 5.0 0.02 1.47 1.46 95 1005.3
20260505101403 59 146 1.0 3.0 0.01 1.46 1.46 95 1005.4
20260505100902 59 106 1.0 2.0 0.02 1.46 1.46 95 1005.7
20260505100403 59 97 0.0 2.0 0.02 1.46 1.45 95 1005.7
20260505095902 59 89 1.0 2.0 0.01 1.45 1.45 95 1005.8
20260505094901 59 97 1.0 3.0 0.04 1.45 1.45 95 1005.7
20260505093901 59 94 0.0 2.0 0.22 1.45 1.45 95 1005.7
20260505092853 59 109 0.0 2.0 0.25 1.45 1.45 95 1005.8
20260505092346 59 71 0.0 2.0 0.27 1.45 1.45 95 1005.8
20260505091840 59 121 0.0 2.0 0.28 1.45 1.45 95 1005.8
20260505091330 59 85 0.0 2.0 0.29 1.45 1.45 95 1005.9
20260505090829 59 124 0.0 2.0 0.28 1.44 1.44 94 1005.9
20260505090329 59 124 0.0 1.0 0.30 1.44 1.44 94 1006.4
20260505085830 59 124 0.0 2.0 0.30 1.44 1.44 94 1006.1
20260505085329 59 124 1.0 2.0 0.30 1.43 1.43 94 1005.8
20260505084829 59 196 1.0 5.0 0.29 1.41 1.40 94 1006.2
20260505083829 59 31 1.0 3.0 0.16 1.23 1.23 94 1006.6
20260505083329 59 269 0.0 3.0 0.17 1.22 1.21 94 1005.9
20260505082829 59 267 1.0 3.0 0.46 1.20 1.20 93 1005.1
20260505081829 59 188 1.0 2.0 0.68 1.17 1.16 93 1005.2
20260505081329 59 208 1.0 2.0 0.75 1.16 1.16 93 1005.8
20260505080831 59 101 0.0 2.0 0.80 1.16 1.15 93 1005.2
20260505080321 59 338 1.0 2.0 0.97 1.14 1.14 93 1005.4
20260505075820 59 338 1.0 4.0 1.01 1.14 1.13 93 1005.5
20260505075313 59 78 2.0 4.0 1.00 1.13 1.13 92 1005.5
20260505074812 60 112 2.0 6.0 0.99 1.11 1.11 92 1006.0
20260505073812 60 61 3.0 13.0 1.03 1.07 1.07 92 1006.0
20260505072312 61 355 2.0 4.0 0.63 0.66 0.63 92 1006.5
20260505071813 61 27 2.0 4.0 0.45 0.48 0.44 91 1006.0
20260505071313 61 317 2.0 4.0 0.39 0.41 0.41 91 1005.2
20260505070812 62 0 1.0 4.0 0.34 0.36 0.36 91 1004.9
20260505070310 62 25 0.0 2.0 0.16 0.17 0.15 90 1006.0
20260505065808 62 37 0.0 2.0 0.13 0.13 0.13 90 1005.5
20260505064808 62 54 1.0 3.0 0.12 0.12 0.12 89 1005.4
20260505064301 62 79 1.0 3.0 0.09 0.09 0.08 88 1005.0
20260505063800 63 63 1.0 3.0 0.04 0.04 0.04 87 1005.7
20260505063302 63 299 1.0 2.0 0.04 0.04 0.04 85 1006.7
20260505062304 64 139 1.0 5.0 0.03 0.03 0.03 83 1004.9
20260505061801 64 217 2.0 6.0 0.03 0.03 0.03 83 1004.9
20260505061302 65 34 1.0 6.0 0.02 0.02 0.02 81 1005.2
20260505060301 66 99 1.0 5.0 0.00 0.00 0.00 77 1006.2
20260505055801 66 215 1.0 5.0 0.00 0.00 0.00 76 1006.1
20260505054300 66 171 1.0 4.0 0.00 0.00 0.00 73 1006.1
20260505053801 66 183 1.0 4.0 0.00 0.00 0.00 73 1006.3
20260505053300 66 171 1.0 4.0 0.00 0.00 0.00 73 1006.2
20260505052755 66 176 1.0 3.0 0.00 0.00 0.00 73 1006.2
20260505052248 66 215 2.0 4.0 0.00 0.00 0.00 73 1006.0
20260505051744 65 157 2.0 6.0 0.00 0.00 0.00 73 1005.9
20260505051244 65 184 2.0 6.0 0.00 0.00 0.00 73 1005.5
20260505050745 66 139 1.0 4.0 0.00 0.00 0.00 73 1005.5
20260505050245 65 156 1.0 5.0 0.00 0.00 0.00 73 1005.7